ANA579 RJGG-ROIG

Flight info

Callsign ANA579
Flight time 2h 32m
Altitude 40000
Route ESPAN KEC Y12 LAXEL Y52 TONAR Y525 KXC Y62 GANAS Y576 DIANA
Aircraft B789/H-SDE1E2E3FGHIJ2J3J4J5M1RWXY/LB1D1

Departure

Time 2026-04-24 00:03
Airport Chubu Centrair International Airport (RJGG)

Arrival

Time 2026-04-24 02:36
Airport New Ishigaki Airport (ROIG)
Time Latitude Longitude Altitude Speed Heading
2026-04-23 23:09 34.85911 136.81058 6 ft 0 kts 170°
2026-04-23 23:52 34.85912 136.81057 34 ft 2 kts 168°
2026-04-23 23:52 34.85934 136.81053 33 ft 4 kts 177°
2026-04-23 23:52 34.85961 136.81054 33 ft 4 kts 192°
2026-04-23 23:53 34.85986 136.81063 33 ft 4 kts 204°
2026-04-23 23:53 34.86005 136.81075 33 ft 0 kts 209°
2026-04-23 23:55 34.86002 136.81073 33 ft 1 kts 211°
2026-04-23 23:55 34.85989 136.81058 33 ft 3 kts 231°
2026-04-23 23:55 34.85985 136.81040 33 ft 3 kts 260°
2026-04-23 23:56 34.85985 136.81010 34 ft 5 kts 274°
2026-04-23 23:56 34.85986 136.80959 34 ft 7 kts 266°
2026-04-23 23:56 34.85966 136.80898 34 ft 8 kts 227°
2026-04-23 23:56 34.85918 136.80882 34 ft 8 kts 179°
2026-04-23 23:57 34.85858 136.80890 34 ft 10 kts 169°
2026-04-23 23:57 34.85781 136.80908 34 ft 13 kts 169°
2026-04-23 23:57 34.85685 136.80932 34 ft 15 kts 168°
2026-04-23 23:57 34.85574 136.80958 34 ft 18 kts 169°
2026-04-23 23:58 34.85447 136.80989 34 ft 19 kts 169°
2026-04-23 23:58 34.85310 136.81022 34 ft 20 kts 169°
2026-04-23 23:58 34.85173 136.81055 34 ft 20 kts 168°
2026-04-23 23:58 34.85044 136.81087 34 ft 18 kts 169°
2026-04-23 23:59 34.84919 136.81115 34 ft 18 kts 169°
2026-04-23 23:59 34.84796 136.81144 34 ft 18 kts 168°
2026-04-23 23:59 34.84670 136.81175 34 ft 19 kts 168°
2026-04-23 23:59 34.84531 136.81208 34 ft 20 kts 169°
2026-04-24 00:00 34.84406 136.81235 34 ft 17 kts 178°
2026-04-24 00:00 34.84357 136.81195 33 ft 6 kts 245°
2026-04-24 00:00 34.84343 136.81143 33 ft 8 kts 256°
2026-04-24 00:00 34.84331 136.81071 32 ft 3 kts 259°
2026-04-24 00:01 34.84331 136.81070 32 ft 1 kts 259°
2026-04-24 00:01 34.84326 136.81035 31 ft 7 kts 259°
2026-04-24 00:01 34.84315 136.80950 28 ft 11 kts 271°
2026-04-24 00:02 34.84337 136.80906 28 ft 4 kts 322°
2026-04-24 00:02 34.84363 136.80890 28 ft 4 kts 340°
2026-04-24 00:02 34.84397 136.80882 29 ft 11 kts 349°
2026-04-24 00:02 34.84671 136.80816 30 ft 70 kts 349°
2026-04-24 00:03 34.85338 136.80658 30 ft 124 kts 349°
2026-04-24 00:03 34.86334 136.80411 67 ft 163 kts 348°
2026-04-24 00:03 34.87489 136.80181 411 ft 177 kts 346°
2026-04-24 00:03 34.88706 136.80002 1246 ft 176 kts 11°
2026-04-24 00:04 34.89762 136.80721 2293 ft 183 kts 28°
2026-04-24 00:04 34.91078 136.81206 2956 ft 213 kts 11°
2026-04-24 00:04 34.92633 136.81551 3645 ft 243 kts 12°
2026-04-24 00:04 34.94362 136.82024 4654 ft 261 kts 14°
2026-04-24 00:05 34.96147 136.82566 5949 ft 268 kts 13°
2026-04-24 00:05 34.97956 136.83105 7145 ft 274 kts 12°
2026-04-24 00:05 34.99824 136.83648 8377 ft 279 kts 12°
2026-04-24 00:05 35.01748 136.84122 9559 ft 285 kts
2026-04-24 00:06 35.03651 136.83547 10532 ft 293 kts 327°
2026-04-24 00:06 35.05122 136.81714 11143 ft 314 kts 296°
2026-04-24 00:06 35.05701 136.79101 11694 ft 337 kts 271°
2026-04-24 00:06 35.05293 136.76192 12202 ft 362 kts 249°
2026-04-24 00:07 35.03914 136.73615 13392 ft 366 kts 228°
2026-04-24 00:07 35.01851 136.71737 14419 ft 377 kts 209°
2026-04-24 00:07 34.99332 136.70768 15439 ft 386 kts 193°
2026-04-24 00:07 34.96644 136.70413 16601 ft 390 kts 188°
2026-04-24 00:08 34.93907 136.70119 17624 ft 398 kts 191°
2026-04-24 00:08 34.91153 136.69649 18646 ft 401 kts 195°
2026-04-24 00:08 34.88440 136.68905 19658 ft 398 kts 201°
2026-04-24 00:08 34.85855 136.67760 20600 ft 394 kts 210°
2026-04-24 00:09 34.83414 136.66235 21493 ft 393 kts 213°
2026-04-24 00:09 34.80813 136.65075 22325 ft 406 kts 198°
2026-04-24 00:09 34.77951 136.64762 23097 ft 422 kts 185°
2026-04-24 00:09 34.74988 136.65314 23730 ft 441 kts 173°
2026-04-24 00:10 34.72084 136.66730 24290 ft 461 kts 160°
2026-04-24 00:10 34.69257 136.68661 24756 ft 467 kts 160°
2026-04-24 00:10 34.66402 136.70547 25282 ft 465 kts 165°
2026-04-24 00:10 34.63408 136.71798 25825 ft 449 kts 179°
2026-04-24 00:11 34.60363 136.72187 26414 ft 432 kts 192°
2026-04-24 00:11 34.57450 136.71753 27002 ft 415 kts 204°
2026-04-24 00:11 34.54712 136.70743 27567 ft 408 kts 209°
2026-04-24 00:11 34.52083 136.69563 28149 ft 407 kts 210°
2026-04-24 00:12 34.49407 136.68388 28742 ft 411 kts 208°
2026-04-24 00:12 34.46633 136.67456 29305 ft 418 kts 205°
2026-04-24 00:12 34.43786 136.66677 29823 ft 419 kts 205°
2026-04-24 00:12 34.40964 136.65807 30275 ft 417 kts 207°
2026-04-24 00:13 34.38174 136.64841 30602 ft 418 kts 207°
2026-04-24 00:13 34.35356 136.63898 30921 ft 423 kts 206°
2026-04-24 00:13 34.32487 136.62999 31205 ft 427 kts 206°
2026-04-24 00:13 34.29606 136.62092 31580 ft 427 kts 207°
2026-04-24 00:14 34.26768 136.61173 32033 ft 426 kts 207°
2026-04-24 00:14 34.23912 136.60213 32446 ft 422 kts 210°
2026-04-24 00:14 34.21196 136.58974 32841 ft 413 kts 215°
2026-04-24 00:14 34.18652 136.57438 33281 ft 405 kts 220°
2026-04-24 00:15 34.16295 136.55635 33707 ft 397 kts 225°
2026-04-24 00:15 34.14141 136.53599 34108 ft 390 kts 230°
2026-04-24 00:15 34.12128 136.51424 34518 ft 387 kts 230°
2026-04-24 00:15 34.10119 136.49273 34960 ft 385 kts 230°
2026-04-24 00:16 34.08123 136.47126 35400 ft 382 kts 230°
2026-04-24 00:16 34.06147 136.44987 35861 ft 380 kts 230°
2026-04-24 00:16 34.04185 136.42866 36280 ft 378 kts 230°
2026-04-24 00:16 34.02231 136.40763 36692 ft 375 kts 230°
2026-04-24 00:17 34.00286 136.38672 37112 ft 373 kts 230°
2026-04-24 00:17 33.98357 136.36595 37532 ft 371 kts 231°
2026-04-24 00:17 33.96438 136.34530 37933 ft 369 kts 231°
2026-04-24 00:17 33.94522 136.32471 38331 ft 368 kts 231°
2026-04-24 00:18 33.92618 136.30426 38692 ft 366 kts 231°
2026-04-24 00:18 33.90716 136.28384 38910 ft 367 kts 231°
2026-04-24 00:18 33.88807 136.26334 39121 ft 368 kts 231°
2026-04-24 00:18 33.86896 136.24285 39310 ft 369 kts 230°
2026-04-24 00:19 33.84973 136.22226 39511 ft 370 kts 230°
2026-04-24 00:19 33.83064 136.20180 39619 ft 374 kts 230°
2026-04-24 00:19 33.79143 136.15985 39807 ft 380 kts 230°
2026-04-24 00:20 33.77153 136.13859 39917 ft 383 kts 230°
2026-04-24 00:20 33.75147 136.11716 39925 ft 388 kts 230°
2026-04-24 00:20 33.71107 136.07410 39918 ft 388 kts 230°
2026-04-24 00:21 33.67758 136.03840 39917 ft 387 kts 230°
2026-04-24 00:21 33.63719 135.99540 39916 ft 388 kts 230°
2026-04-24 00:22 33.59677 135.95244 39916 ft 388 kts 230°
2026-04-24 00:22 33.55632 135.90950 39922 ft 388 kts 230°
2026-04-24 00:23 33.51589 135.86664 39917 ft 388 kts 230°
2026-04-24 00:23 33.47558 135.82420 39918 ft 389 kts 227°
2026-04-24 00:24 33.42965 135.78786 39936 ft 403 kts 218°
2026-04-24 00:24 33.37762 135.76117 39930 ft 412 kts 213°
2026-04-24 00:25 33.32429 135.73565 39917 ft 413 kts 213°
2026-04-24 00:25 33.27090 135.71034 39918 ft 413 kts 213°
2026-04-24 00:26 33.21743 135.68493 39915 ft 413 kts 213°
2026-04-24 00:26 33.16385 135.65954 39917 ft 414 kts 213°
2026-04-24 00:27 33.11022 135.63416 39912 ft 414 kts 213°
2026-04-24 00:27 33.05685 135.60893 39911 ft 414 kts 213°
2026-04-24 00:28 33.00323 135.58361 39915 ft 414 kts 213°
2026-04-24 00:28 32.94953 135.55831 39907 ft 415 kts 213°
2026-04-24 00:29 32.89581 135.53301 39907 ft 416 kts 213°
2026-04-24 00:29 32.84225 135.50783 39906 ft 417 kts 213°
2026-04-24 00:30 32.78820 135.48245 39907 ft 418 kts 213°
2026-04-24 00:30 32.73396 135.45702 39906 ft 419 kts 213°
2026-04-24 00:31 32.67971 135.43161 39900 ft 420 kts 213°
2026-04-24 00:31 32.62528 135.40616 39902 ft 421 kts 213°
2026-04-24 00:32 32.57079 135.38070 39895 ft 421 kts 213°
2026-04-24 00:32 32.51616 135.35522 39897 ft 422 kts 213°
2026-04-24 00:33 32.46148 135.32975 39894 ft 423 kts 213°
2026-04-24 00:33 32.40663 135.30423 39897 ft 424 kts 213°
2026-04-24 00:34 32.35165 135.27868 39895 ft 425 kts 213°
2026-04-24 00:34 32.29641 135.25305 39891 ft 426 kts 213°
2026-04-24 00:35 32.24153 135.22762 39896 ft 427 kts 213°
2026-04-24 00:35 32.18608 135.20196 39888 ft 428 kts 213°
2026-04-24 00:36 32.13166 135.17441 39902 ft 418 kts 219°
2026-04-24 00:36 32.08473 135.13615 39905 ft 404 kts 230°
2026-04-24 00:37 32.04701 135.08840 39896 ft 394 kts 239°
2026-04-24 00:37 32.01347 135.03718 39896 ft 395 kts 238°
2026-04-24 00:38 31.98001 134.98592 39891 ft 395 kts 238°
2026-04-24 00:38 31.94649 134.93472 39895 ft 395 kts 238°
2026-04-24 00:39 31.91295 134.88352 39890 ft 395 kts 238°
2026-04-24 00:39 31.87942 134.83242 39885 ft 394 kts 238°
2026-04-24 00:40 31.84604 134.78160 39880 ft 395 kts 238°
2026-04-24 00:40 31.81234 134.73038 39878 ft 396 kts 238°
2026-04-24 00:41 31.77867 134.67927 39873 ft 396 kts 238°
2026-04-24 00:41 31.74494 134.62813 39870 ft 396 kts 238°
2026-04-24 00:42 31.71119 134.57703 39871 ft 396 kts 238°
2026-04-24 00:42 31.67743 134.52598 39870 ft 395 kts 238°
2026-04-24 00:43 31.64361 134.47492 39871 ft 396 kts 238°
2026-04-24 00:43 31.61000 134.42423 39873 ft 396 kts 238°
2026-04-24 00:44 31.57604 134.37308 39866 ft 397 kts 238°
2026-04-24 00:44 31.54204 134.32196 39866 ft 397 kts 238°
2026-04-24 00:45 31.50803 134.27087 39865 ft 397 kts 238°
2026-04-24 00:45 31.47399 134.21981 39875 ft 398 kts 238°
2026-04-24 00:46 31.43988 134.16871 39876 ft 399 kts 238°
2026-04-24 00:46 31.40583 134.11777 39872 ft 400 kts 238°
2026-04-24 00:47 31.37159 134.06661 39873 ft 399 kts 237°
2026-04-24 00:47 31.33729 134.01542 39870 ft 399 kts 237°
2026-04-24 00:48 31.30299 133.96431 39867 ft 399 kts 237°
2026-04-24 00:48 31.26880 133.91344 39868 ft 397 kts 237°
2026-04-24 00:49 31.23461 133.86262 39863 ft 397 kts 237°
2026-04-24 00:49 31.20060 133.81214 39862 ft 398 kts 237°
2026-04-24 00:50 31.16630 133.76130 39861 ft 398 kts 237°
2026-04-24 00:50 31.13199 133.71049 39858 ft 398 kts 237°
2026-04-24 00:51 31.09766 133.65974 39862 ft 398 kts 237°
2026-04-24 00:51 31.06325 133.60894 39860 ft 399 kts 237°
2026-04-24 00:52 31.02879 133.55812 39863 ft 400 kts 237°
2026-04-24 00:52 30.99428 133.50725 39864 ft 400 kts 237°
2026-04-24 00:53 30.95974 133.45640 39864 ft 400 kts 237°
2026-04-24 00:53 30.92542 133.40597 39863 ft 399 kts 237°
2026-04-24 00:54 30.89097 133.35538 39865 ft 398 kts 237°
2026-04-24 00:54 30.85651 133.30485 39867 ft 398 kts 237°
2026-04-24 00:55 30.82202 133.25435 39868 ft 398 kts 237°
2026-04-24 00:55 30.78751 133.20386 39873 ft 399 kts 237°
2026-04-24 00:56 30.75290 133.15332 39871 ft 399 kts 236°
2026-04-24 00:56 30.71827 133.10281 39877 ft 400 kts 236°
2026-04-24 00:57 30.68357 133.05225 39876 ft 400 kts 236°
2026-04-24 00:58 30.63166 132.97675 39876 ft 400 kts 236°
2026-04-24 00:58 30.59684 132.92617 39880 ft 401 kts 236°
2026-04-24 00:59 30.56193 132.87555 39877 ft 401 kts 236°
2026-04-24 00:59 30.52705 132.82502 39880 ft 401 kts 236°
2026-04-24 01:00 30.49213 132.77451 39877 ft 401 kts 236°
2026-04-24 01:00 30.45719 132.72403 39878 ft 401 kts 236°
2026-04-24 01:01 30.42224 132.67360 39882 ft 401 kts 236°
2026-04-24 01:01 30.38730 132.62326 39880 ft 400 kts 236°
2026-04-24 01:02 30.35240 132.57302 39882 ft 400 kts 236°
2026-04-24 01:02 30.31747 132.52280 39881 ft 400 kts 236°
2026-04-24 01:03 30.28843 132.48111 39883 ft 400 kts 236°
2026-04-24 01:03 30.24791 132.42300 39875 ft 399 kts 236°
2026-04-24 01:04 30.21297 132.37296 39876 ft 400 kts 236°
2026-04-24 01:04 30.18368 132.33107 39889 ft 399 kts 236°
2026-04-24 01:05 30.14934 132.28199 39886 ft 400 kts 236°
2026-04-24 01:05 30.11428 132.23196 39876 ft 400 kts 236°
2026-04-24 01:06 30.07920 132.18198 39875 ft 400 kts 236°
2026-04-24 01:06 30.04417 132.13210 39890 ft 402 kts 236°
2026-04-24 01:07 30.00887 132.08192 39882 ft 403 kts 236°
2026-04-24 01:07 29.97349 132.03168 39884 ft 404 kts 236°
2026-04-24 01:08 29.93802 131.98138 39883 ft 404 kts 236°
2026-04-24 01:08 29.90256 131.93115 39883 ft 404 kts 236°
2026-04-24 01:09 29.86701 131.88087 39891 ft 404 kts 236°
2026-04-24 01:09 29.83166 131.83093 39894 ft 404 kts 236°
2026-04-24 01:10 29.79556 131.78127 39892 ft 405 kts 234°
2026-04-24 01:10 29.75911 131.73181 39889 ft 405 kts 234°
2026-04-24 01:11 29.72255 131.68240 39890 ft 405 kts 234°
2026-04-24 01:11 29.68602 131.63303 39899 ft 405 kts 234°
2026-04-24 01:12 29.64953 131.58380 39894 ft 404 kts 234°
2026-04-24 01:12 29.61326 131.53492 39895 ft 404 kts 234°
2026-04-24 01:13 29.57678 131.48583 39900 ft 405 kts 234°
2026-04-24 01:13 29.54022 131.43668 39903 ft 404 kts 234°
2026-04-24 01:14 29.50366 131.38758 39901 ft 404 kts 234°
2026-04-24 01:14 29.46712 131.33859 39900 ft 404 kts 234°
2026-04-24 01:15 29.43050 131.28954 39901 ft 405 kts 234°
2026-04-24 01:15 29.39437 131.24119 39902 ft 405 kts 234°
2026-04-24 01:16 29.35784 131.19238 39904 ft 406 kts 234°
2026-04-24 01:16 29.32108 131.14333 39904 ft 405 kts 234°
2026-04-24 01:17 29.28457 131.09466 39906 ft 405 kts 234°
2026-04-24 01:17 29.24788 131.04582 39906 ft 404 kts 234°
2026-04-24 01:18 29.21119 130.99702 39907 ft 404 kts 234°
2026-04-24 01:18 29.17450 130.94829 39906 ft 404 kts 234°
2026-04-24 01:19 29.13767 130.89943 39907 ft 404 kts 234°
2026-04-24 01:19 29.10086 130.85065 39911 ft 405 kts 234°
2026-04-24 01:20 29.06404 130.80192 39907 ft 404 kts 234°
2026-04-24 01:20 29.02724 130.75327 39914 ft 404 kts 234°
2026-04-24 01:21 28.99064 130.70495 39917 ft 404 kts 234°
2026-04-24 01:21 28.95379 130.65636 39913 ft 404 kts 234°
2026-04-24 01:22 28.91693 130.60780 39914 ft 404 kts 234°
2026-04-24 01:22 28.88006 130.55930 39917 ft 405 kts 234°
2026-04-24 01:23 28.84353 130.51130 39916 ft 405 kts 234°
2026-04-24 01:23 28.80658 130.46280 39918 ft 404 kts 234°
2026-04-24 01:24 28.76965 130.41438 39918 ft 405 kts 234°
2026-04-24 01:24 28.73268 130.36597 39920 ft 404 kts 234°
2026-04-24 01:25 28.69595 130.31793 39923 ft 405 kts 234°
2026-04-24 01:25 28.65971 130.27058 39919 ft 405 kts 234°
2026-04-24 01:26 28.62205 130.22144 39922 ft 405 kts 234°
2026-04-24 01:26 28.58498 130.17313 39920 ft 405 kts 234°
2026-04-24 01:27 28.54786 130.12479 39919 ft 406 kts 234°
2026-04-24 01:27 28.51064 130.07639 39916 ft 406 kts 234°
2026-04-24 01:28 28.47377 130.02852 39912 ft 407 kts 234°
2026-04-24 01:28 28.43709 129.98092 39905 ft 407 kts 234°
2026-04-24 01:29 28.39992 129.93276 39914 ft 408 kts 233°
2026-04-24 01:29 28.36251 129.88433 39921 ft 408 kts 233°
2026-04-24 01:30 28.32494 129.83576 39912 ft 409 kts 233°
2026-04-24 01:30 28.28735 129.78723 39910 ft 409 kts 233°
2026-04-24 01:31 28.24985 129.73887 39922 ft 407 kts 233°
2026-04-24 01:31 28.21234 129.69053 39918 ft 409 kts 233°
2026-04-24 01:32 28.17473 129.64214 39922 ft 409 kts 233°
2026-04-24 01:32 28.13712 129.59380 39938 ft 408 kts 233°
2026-04-24 01:33 28.09949 129.54548 39942 ft 408 kts 233°
2026-04-24 01:33 28.06204 129.49745 39943 ft 410 kts 233°
2026-04-24 01:34 28.02421 129.44900 39943 ft 410 kts 233°
2026-04-24 01:34 27.98641 129.40064 39946 ft 410 kts 233°
2026-04-24 01:35 27.94854 129.35224 39943 ft 411 kts 233°
2026-04-24 01:35 27.91062 129.30384 39945 ft 410 kts 233°
2026-04-24 01:36 27.87297 129.25583 39941 ft 410 kts 233°
2026-04-24 01:36 27.83509 129.20758 39945 ft 410 kts 233°
2026-04-24 01:37 27.79718 129.15935 39943 ft 410 kts 233°
2026-04-24 01:37 27.75925 129.11115 39945 ft 411 kts 233°
2026-04-24 01:38 27.72144 129.06321 39945 ft 411 kts 233°
2026-04-24 01:38 27.68340 129.01501 39947 ft 411 kts 233°
2026-04-24 01:39 27.64527 128.96675 39942 ft 412 kts 233°
2026-04-24 01:39 27.60703 128.91841 39941 ft 413 kts 233°
2026-04-24 01:40 27.56873 128.87006 39941 ft 413 kts 233°
2026-04-24 01:40 27.53071 128.82210 39934 ft 412 kts 233°
2026-04-24 01:41 27.49243 128.77388 39937 ft 413 kts 233°
2026-04-24 01:41 27.45411 128.72566 39935 ft 413 kts 233°
2026-04-24 01:42 27.41997 128.67431 39939 ft 408 kts 243°
2026-04-24 01:42 27.39101 128.61926 39936 ft 409 kts 242°
2026-04-24 01:43 27.36202 128.56417 39937 ft 408 kts 242°
2026-04-24 01:43 27.33307 128.50919 39947 ft 409 kts 242°
2026-04-24 01:44 27.30401 128.45411 39945 ft 409 kts 242°
2026-04-24 01:44 27.27514 128.39943 39946 ft 410 kts 242°
2026-04-24 01:45 27.24602 128.34436 39956 ft 410 kts 242°
2026-04-24 01:45 27.21685 128.28926 39943 ft 410 kts 242°
2026-04-24 01:46 27.18766 128.23420 39953 ft 410 kts 242°
2026-04-24 01:46 27.15839 128.17906 39955 ft 410 kts 242°
2026-04-24 01:47 27.12932 128.12436 39957 ft 410 kts 242°
2026-04-24 01:47 27.10462 128.07794 39952 ft 410 kts 242°
2026-04-24 01:48 27.07534 128.02296 39957 ft 410 kts 242°
2026-04-24 01:48 27.04603 127.96799 39958 ft 411 kts 242°
2026-04-24 01:49 27.01683 127.91332 39962 ft 411 kts 242°
2026-04-24 01:49 26.98743 127.85832 39964 ft 411 kts 241°
2026-04-24 01:50 26.95843 127.80413 39968 ft 411 kts 241°
2026-04-24 01:50 26.92896 127.74914 39972 ft 411 kts 241°
2026-04-24 01:51 26.89947 127.69418 39972 ft 411 kts 241°
2026-04-24 01:51 26.87002 127.63934 39974 ft 410 kts 241°
2026-04-24 01:52 26.84057 127.58459 39972 ft 411 kts 241°
2026-04-24 01:52 26.81103 127.52973 39973 ft 411 kts 241°
2026-04-24 01:53 26.78165 127.47525 39968 ft 411 kts 241°
2026-04-24 01:53 26.75208 127.42046 39965 ft 411 kts 241°
2026-04-24 01:54 26.72248 127.36571 39956 ft 411 kts 241°
2026-04-24 01:54 26.69284 127.31093 39959 ft 411 kts 241°
2026-04-24 01:55 26.66310 127.25603 39961 ft 412 kts 241°
2026-04-24 01:55 26.63336 127.20122 39964 ft 412 kts 240°
2026-04-24 01:56 26.60377 127.14674 39963 ft 412 kts 240°
2026-04-24 01:56 26.57396 127.09193 39966 ft 412 kts 240°
2026-04-24 01:57 26.54418 127.03723 39967 ft 412 kts 240°
2026-04-24 01:57 26.51432 126.98246 39969 ft 412 kts 240°
2026-04-24 01:58 26.48444 126.92771 39971 ft 413 kts 240°
2026-04-24 01:58 26.45456 126.87304 39972 ft 412 kts 240°
2026-04-24 01:59 26.42487 126.81877 39970 ft 413 kts 240°
2026-04-24 01:59 26.39488 126.76404 39970 ft 414 kts 240°
2026-04-24 02:00 26.35967 126.71307 39989 ft 420 kts 228°
2026-04-24 02:00 26.31492 126.67067 39981 ft 421 kts 224°
2026-04-24 02:01 26.26946 126.62946 39975 ft 421 kts 224°
2026-04-24 02:01 26.22390 126.58844 39970 ft 421 kts 224°
2026-04-24 02:02 26.17873 126.54768 39975 ft 420 kts 224°
2026-04-24 02:02 26.13314 126.50665 39972 ft 421 kts 224°
2026-04-24 02:03 26.06524 126.44425 39974 ft 423 kts 224°
2026-04-24 02:03 26.01964 126.40267 39977 ft 422 kts 224°
2026-04-24 02:04 25.97457 126.36143 39972 ft 422 kts 224°
2026-04-24 02:04 25.92886 126.32034 39971 ft 422 kts 224°
2026-04-24 02:05 25.88322 126.27916 39973 ft 423 kts 224°
2026-04-24 02:05 25.83750 126.23802 39972 ft 422 kts 224°
2026-04-24 02:06 25.79186 126.19698 39977 ft 422 kts 224°
2026-04-24 02:06 25.74612 126.15588 39975 ft 423 kts 224°
2026-04-24 02:07 25.70043 126.11488 39976 ft 423 kts 224°
2026-04-24 02:07 25.65485 126.07401 39976 ft 424 kts 224°
2026-04-24 02:08 25.60891 126.03287 39975 ft 425 kts 224°
2026-04-24 02:08 25.56288 125.99168 39975 ft 425 kts 223°
2026-04-24 02:09 25.51704 125.95071 39976 ft 426 kts 223°
2026-04-24 02:09 25.47093 125.90953 39977 ft 426 kts 223°
2026-04-24 02:10 25.42983 125.86345 40001 ft 419 kts 236°
2026-04-24 02:10 25.39922 125.80879 39996 ft 418 kts 241°
2026-04-24 02:11 25.37016 125.75354 39733 ft 406 kts 241°
2026-04-24 02:11 25.35622 125.72679 38820 ft 404 kts 241°
2026-04-24 02:11 25.34234 125.70033 38237 ft 394 kts 240°
2026-04-24 02:12 25.32836 125.67419 37600 ft 400 kts 240°
2026-04-24 02:12 25.31396 125.64735 36913 ft 411 kts 240°
2026-04-24 02:12 25.29939 125.61998 36168 ft 415 kts 240°
2026-04-24 02:12 25.28473 125.59240 35420 ft 418 kts 240°
2026-04-24 02:13 25.26993 125.56466 34623 ft 420 kts 239°
2026-04-24 02:13 25.25500 125.53674 33773 ft 423 kts 239°
2026-04-24 02:13 25.24013 125.50892 32914 ft 424 kts 239°
2026-04-24 02:13 25.22499 125.48057 32022 ft 427 kts 239°
2026-04-24 02:14 25.20984 125.45223 31102 ft 431 kts 239°
2026-04-24 02:14 25.19451 125.42360 30133 ft 436 kts 239°
2026-04-24 02:14 25.17902 125.39468 29070 ft 438 kts 239°
2026-04-24 02:14 25.16349 125.36570 28064 ft 438 kts 239°
2026-04-24 02:15 25.14803 125.33687 27074 ft 435 kts 240°
2026-04-24 02:15 25.13528 125.31309 26277 ft 433 kts 240°
2026-04-24 02:15 25.11995 125.28454 25302 ft 431 kts 240°
2026-04-24 02:15 25.10525 125.25723 24385 ft 429 kts 239°
2026-04-24 02:16 25.08789 125.23050 23420 ft 428 kts 234°
2026-04-24 02:16 25.07010 125.20425 22449 ft 425 kts 235°
2026-04-24 02:16 25.05277 125.17847 21538 ft 419 kts 235°
2026-04-24 02:16 25.03541 125.15290 20632 ft 414 kts 235°
2026-04-24 02:17 25.01820 125.12770 19745 ft 409 kts 235°
2026-04-24 02:17 25.00138 125.10297 18896 ft 407 kts 235°
2026-04-24 02:17 24.98578 125.07728 18438 ft 397 kts 239°
2026-04-24 02:17 24.97071 125.05240 17909 ft 384 kts 238°
2026-04-24 02:18 24.95609 125.02854 17411 ft 374 kts 238°
2026-04-24 02:18 24.94180 125.00487 16930 ft 367 kts 239°
2026-04-24 02:18 24.92791 124.98166 16427 ft 357 kts 238°
2026-04-24 02:18 24.91438 124.95923 15968 ft 345 kts 238°
2026-04-24 02:19 24.90123 124.93753 15531 ft 335 kts 238°
2026-04-24 02:19 24.88867 124.91676 15094 ft 325 kts 238°
2026-04-24 02:19 24.87617 124.89606 14677 ft 317 kts 238°
2026-04-24 02:19 24.86410 124.87608 14271 ft 309 kts 238°
2026-04-24 02:20 24.85250 124.85691 13874 ft 301 kts 239°
2026-04-24 02:20 24.84114 124.83817 13513 ft 284 kts 239°
2026-04-24 02:20 24.83052 124.82064 13142 ft 267 kts 239°
2026-04-24 02:20 24.82053 124.80415 12788 ft 252 kts 239°
2026-04-24 02:21 24.81107 124.78853 12457 ft 239 kts 239°
2026-04-24 02:21 24.80209 124.77371 12146 ft 227 kts 239°
2026-04-24 02:21 24.79352 124.75955 11852 ft 217 kts 239°
2026-04-24 02:21 24.78529 124.74599 11578 ft 208 kts 239°
2026-04-24 02:22 24.77743 124.73305 11293 ft 199 kts 239°
2026-04-24 02:22 24.76989 124.72061 11040 ft 191 kts 239°
2026-04-24 02:22 24.76268 124.70871 10805 ft 183 kts 239°
2026-04-24 02:22 24.75575 124.69731 10574 ft 175 kts 239°
2026-04-24 02:23 24.74904 124.68625 10336 ft 172 kts 239°
2026-04-24 02:23 24.74240 124.67529 10107 ft 172 kts 239°
2026-04-24 02:23 24.73576 124.66435 9882 ft 171 kts 239°
2026-04-24 02:23 24.72914 124.65348 9637 ft 170 kts 239°
2026-04-24 02:24 24.72257 124.64265 9419 ft 170 kts 239°
2026-04-24 02:24 24.71598 124.63182 9194 ft 170 kts 239°
2026-04-24 02:24 24.70941 124.62102 8973 ft 169 kts 239°
2026-04-24 02:24 24.70297 124.61041 8753 ft 169 kts 239°
2026-04-24 02:25 24.69637 124.59957 8534 ft 168 kts 239°
2026-04-24 02:25 24.68987 124.58888 8306 ft 167 kts 239°
2026-04-24 02:25 24.68359 124.57857 8081 ft 163 kts 239°
2026-04-24 02:25 24.67728 124.56821 7871 ft 163 kts 239°
2026-04-24 02:26 24.67101 124.55790 7654 ft 161 kts 239°
2026-04-24 02:26 24.66522 124.54839 7465 ft 160 kts 238°
2026-04-24 02:26 24.65904 124.53825 7257 ft 159 kts 238°
2026-04-24 02:26 24.65289 124.52815 7038 ft 159 kts 238°
2026-04-24 02:27 24.64674 124.51805 6828 ft 159 kts 238°
2026-04-24 02:27 24.64058 124.50794 6623 ft 159 kts 238°
2026-04-24 02:27 24.63447 124.49793 6415 ft 159 kts 238°
2026-04-24 02:27 24.62830 124.48781 6199 ft 157 kts 238°
2026-04-24 02:28 24.62221 124.47783 5975 ft 156 kts 238°
2026-04-24 02:28 24.61612 124.46784 5788 ft 158 kts 238°
2026-04-24 02:28 24.61007 124.45791 5573 ft 158 kts 238°
2026-04-24 02:28 24.60385 124.44771 5364 ft 158 kts 238°
2026-04-24 02:29 24.59790 124.43798 5160 ft 154 kts 238°
2026-04-24 02:29 24.59191 124.42817 4950 ft 156 kts 238°
2026-04-24 02:29 24.58581 124.41813 4762 ft 159 kts 237°
2026-04-24 02:29 24.57951 124.40786 4538 ft 161 kts 237°
2026-04-24 02:30 24.57334 124.39777 4323 ft 160 kts 238°
2026-04-24 02:30 24.56720 124.38773 4113 ft 157 kts 238°
2026-04-24 02:30 24.56109 124.37773 3907 ft 159 kts 238°
2026-04-24 02:30 24.55357 124.36893 3667 ft 159 kts 220°
2026-04-24 02:31 24.54452 124.36212 3474 ft 156 kts 217°
2026-04-24 02:31 24.53571 124.35526 3270 ft 155 kts 218°
2026-04-24 02:31 24.52693 124.34830 3071 ft 157 kts 218°
2026-04-24 02:31 24.51800 124.34122 2864 ft 158 kts 218°
2026-04-24 02:32 24.50924 124.33430 2671 ft 158 kts 219°
2026-04-24 02:32 24.50323 124.32953 2511 ft 160 kts 219°
2026-04-24 02:32 24.49150 124.32027 2231 ft 157 kts 220°
2026-04-24 02:32 24.48249 124.31312 2016 ft 162 kts 220°
2026-04-24 02:33 24.47622 124.30813 1873 ft 166 kts 220°
2026-04-24 02:33 24.46693 124.30081 1652 ft 162 kts 220°
2026-04-24 02:33 24.45783 124.29361 1425 ft 162 kts 220°
2026-04-24 02:33 24.44880 124.28648 1228 ft 157 kts 218°
2026-04-24 02:34 24.43992 124.27948 1019 ft 159 kts 219°
2026-04-24 02:34 24.43395 124.27473 885 ft 161 kts 219°
2026-04-24 02:35 24.42902 124.27084 760 ft 159 kts 218°
2026-04-24 02:35 24.41998 124.26373 581 ft 159 kts 218°
2026-04-24 02:35 24.41110 124.25640 320 ft 161 kts 223°
2026-04-24 02:35 24.40253 124.24916 132 ft 150 kts 210°
2026-04-24 02:36 24.39562 124.24455 109 ft 94 kts 222°
2026-04-24 02:36 24.39156 124.24115 127 ft 47 kts 217°
2026-04-24 02:36 24.38957 124.23977 141 ft 18 kts 200°
2026-04-24 02:36 24.38877 124.24012 142 ft 4 kts 129°
2026-04-24 02:37 24.38868 124.24025 142 ft 4 kts 125°
2026-04-24 02:37 24.38851 124.24067 140 ft 7 kts 100°
2026-04-24 02:37 24.38876 124.24125 132 ft 12 kts 43°
2026-04-24 02:38 24.38965 124.24202 121 ft 18 kts 36°
2026-04-24 02:38 24.39066 124.24281 121 ft 18 kts 35°
2026-04-24 02:38 24.39147 124.24347 121 ft 6 kts 46°
2026-04-24 02:38 24.39151 124.24363 118 ft 3 kts 80°
2026-04-24 02:39 24.39141 124.24397 119 ft 6 kts 118°
2026-04-24 02:39 24.39109 124.24446 119 ft 7 kts 127°
2026-04-24 02:39 24.39091 124.24473 122 ft 1 kts 125°
2026-04-24 02:39 24.39091 124.24474 120 ft 0 kts 125°